SCP
0 0 0 0 0 0 0 0 0 0 0 0 0 0 0 0 0 0 0 0 0 0 1 0 0 0 0 1 1 1 1 1 0 0 0 0 0 0 0 0 0 0 0 0 0 0 0 0 0
0 0 0 0 0 0 0 0 0 0 0 0 0 0 0 0 0 0 0 0 0 0 1 1 0 0 0 1 1 1 1 1 1 0 0 0 0 0 0 0 0 0 0 0 0 0 0 0 0
0 0 0 0 0 0 0 0 0 0 0 0 0 0 0 0 0 0 0 0 0 0 0 1 0 0 0 0 1 0 1 1 1 1 0 0 0 0 0 0 0 0 0 0 0 0 0 0 0
0 0 0 0 0 0 0 0 0 0 0 0 0 0 0 0 0 0 0 0 0 0 0 0 1 0 0 0 0 1 0 1 1 1 0 0 0 0 0 0 0 0 0 0 0 0 0 0 0
0 0 0 0 0 0 0 0 0 0 0 0 0 0 0 0 0 0 0 0 0 0 0 0 0 0 0 0 0 0 0 1 1 1 0 0 0 0 0 0 0 0 0 0 0 0 0 0 0
0 0 0 0 0 0 0 0 0 0 0 0 0 0 0 0 0 0 0 0 0 0 0 0 0 0 0 0 0 0 0 0 0 1 1 0 0 0 0 0 0 0 0 0 0 0 0 0 0
0 0 0 0 0 0 0 0 0 0 0 0 0 0 0 0 0 0 0 0 0 0 0 0 0 0 0 0 0 0 0 0 0 0 1 0 0 0 0 0 0 0 0 0 0 0 0 0 0
0 0 0 0 0 0 0 0 0 0 0 0 0 0 0 0 0 0 0 0 0 0 0 0 0 0 0 0 0 0 0 0 0 0 0 0 0 0 0 0 0 0 0 0 0 0 0 0 0
0 0 0 0 0 0 0 0 0 0 0 0 0 0 0 0 0 0 0 0 0 0 0 0 0 0 0 0 0 0 0 0 0 0 0 0 0 0 0 0 0 0 0 0 0 0 0 0 0
0 0 0 0 0 0 0 0 0 0 0 0 0 0 0 0 0 0 0 0 0 0 0 0 0 0 0 0 0 0 0 0 0 0 0 0 0 0 0 0 0 0 0 0 0 0 0 0 0
0 0 0 0 0 0 0 0 0 0 0 0 0 0 0 0 0 0 0 0 0 0 0 0 0 0 0 0 0 0 0 0 0 0 0 0 0 0 0 0 0 0 0 0 0 0 0 0 0
0 0 0 0 0 0 0 0 0 0 0 -0 0 0 0 0 0 0 0 0 0 0 0 0 -0 -0 0 -0 0 0 0 0 0 0 0 0 0 0 0 0 0 0 0 0 0 0 0 0 0
0 0 0 0 0 0 0 0 0 0 0 0 0 0 0 0 0 0 0 0 0 0 0 0 0 0 -0 -0 -0 0 0 0 0 0 0 0 0 0 0 0 0 0 0 0 0 0 0 0 0
0 0 0 0 0 0 0 0 0 0 0 0 0 0 0 0 0 0 0 0 0 0 0 0 0 0 0 0 0 0 0 0 0 0 0 0 0 0 0 0 0 0 0 0 0 0 0 0 0
0 0 0 0 0 0 0 0 0 0 0 0 0 0 0 0 0 0 0 0 0 0 0 0 0 0 0 0 0 0 0 0 0 0 0 0 0 0 0 0 0 0 0 0 0 0 0 0 0
0 0 0 0 0 0 0 0 0 0 0 0 0 0 0 0 0 0 0 0 0 0 0 0 0 0 0 -0 0 0 0 0 0 0 0 0 0 0 0 0 0 0 0 0 0 0 0 0 0
0 0 0 0 0 0 0 0 0 0 0 0 0 0 0 0 0 0 0 0 0 0 0 0 0 0 0 0 0 0 0 0 0 0 0 0 0 0 0 0 0 0 0 0 0 0 0 0 0
0 0 0 0 0 0 0 0 0 0 0 0 0 0 0 0 0 0 0 0 0 0 0 0 0 0 0 0 0 0 0 0 0 0 0 0 0 0 0 0 0 0 0 0 0 0 0 0 0
0 0 0 0 0 0 0 0 0 0 0 0 0 0 0 0 0 0 0 0 0 0 0 0 0 0 0 0 0 0 0 0 0 0 0 0 0 0 0 0 0 0 0 0 0 0 0 0 0
0 0 0 0 0 0 0 0 0 0 0 0 0 0 0 0 0 0 0 0 0 0 0 0 0 0 0 0 0 0 0 0 0 0 0 0 0 0 0 0 0 0 0 0 0 0 0 0 0
0 0 0 0 0 0 0 0 0 0 0 -0 -0 -0 0 0 0 0 0 0 0 0 0 0 0 0 0 0 0 0 0 0 0 0 0 0 0 0 0 0 0 0 0 0 0 0 0 0 0
0 0 0 0 0 0 0 0 0 0 0 -0 -0 -0 -0 0 0 0 0 0 0 0 0 0 0 0 0 0 0 0 0 0 0 0 0 0 0 0 0 0 0 0 0 0 0 0 0 0 0
0 0 0 0 0 0 0 0 0 0 0 -0 -0 -0 -0 -0 0 0 0 0 0 0 0 0 0 0 0 0 0 0 0 0 0 0 0 0 0 0 0 0 0 0 0 0 0 0 0 0 0
0 0 0 0 0 0 0 0 0 -0 -0 -0 -0 -0 -0 -0 -0 0 0 0 0 0 0 0 0 0 0 0 0 0 0 0 0 0 0 0 0 0 0 0 0 0 0 0 0 0 0 0 0
0 0 0 0 0 0 0 0 0 0 -0 -0 -0 -0 -0 -0 -0 0 -0 -0 0 0 0 0 0 0 0 0 0 0 0 0 0 -0 0 0 0 0 0 0 0 0 0 0 0 0 0 0 0
0 0 0 0 0 0 0 0 0 0 0 -0 -0 -0 -0 -0 -0 -0 -0 0 0 0 0 0 0 0 0 0 0 0 0 0 0 0 0 0 0 0 0 0 0 0 0 0 0 0 0 0 0
0 0 0 0 0 0 0 0 0 0 -0 0 0 -0 -0 -0 -0 -0 0 0 0 0 0 0 0 0 0 0 0 0 0 0 0 0 0 0 0 0 0 0 0 0 0 0 0 0 0 0 0
0 0 0 0 0 0 0 0 0 -0 -0 -0 -0 -0 -0 -0 -0 0 0 0 0 0 0 0 0 0 0 0 0 0 0 0 0 0 0 0 0 0 0 0 0 0 0 0 0 0 0 0 0
0 0 0 0 0 0 0 0 0 -0 0 0 0 -0 -0 -0 -0 0 0 0 0 0 0 0 0 0 0 0 0 0 0 0 0 0 0 0 0 0 0 0 0 0 0 0 0 0 0 0 0
0 0 0 0 0 0 0 0 0 -0 -0 -0 -0 -0 0 -0 -0 0 0 0 0 0 0 0 0 0 0 0 0 0 0 0 0 0 0 0 0 0 0 0 0 0 0 0 0 0 0 0 0
Wind_Speed_500mb
6 6 17 20 5 6 7 15 7 8 6 6 14 13 14 12 7 7 8 7 10 11 13 18 23 29 34 35 44 49 51 51 52 54 52 50 46 43 42 37 36 35 33 34 35 33 30 25 26
4 8 19 7 8 5 11 10 13 26 13 43 35 24 6 5 4 5 8 5 7 10 12 15 20 22 26 32 36 45 49 51 53 53 53 52 49 46 41 40 37 35 34 34 34 35 33 30 28
7 12 9 8 8 16 10 9 18 21 38 41 21 7 5 6 10 6 6 3 5 12 16 20 13 16 21 30 34 36 46 50 50 53 54 52 49 46 43 42 41 39 35 32 33 36 38 34 37
3 7 4 4 16 12 11 8 2 15 18 20 18 6 5 6 5 8 12 1 6 17 24 32 28 23 23 28 33 37 36 45 50 52 54 53 50 47 45 42 41 39 33 31 34 38 40 42 43
4 5 1 6 14 10 8 19 8 6 15 32 17 1 7 21 17 11 6 4 7 14 20 25 27 29 29 31 37 40 41 41 46 51 54 53 50 47 45 44 43 38 32 33 37 40 44 45 40
3 5 3 14 14 7 9 14 16 14 27 29 8 15 11 22 11 6 5 4 6 14 12 19 28 30 33 33 36 42 46 47 46 50 52 53 50 47 46 47 44 37 30 35 40 44 47 41 39
9 7 10 7 9 11 6 22 7 13 12 13 10 11 22 8 14 2 5 6 8 6 7 14 11 17 26 33 33 40 47 51 54 54 50 52 51 48 49 50 46 41 36 32 41 46 47 40 40
4 6 6 7 4 11 7 21 15 21 9 24 6 7 7 9 9 2 4 6 7 9 8 5 9 13 20 19 24 34 38 52 57 59 57 52 52 50 50 52 50 44 41 34 45 49 46 42 41
6 5 5 9 5 8 13 12 20 26 16 36 18 9 8 26 23 16 15 14 15 18 17 16 15 16 20 19 22 30 36 45 57 61 59 58 54 54 54 56 54 49 48 39 45 50 46 42 41
6 6 10 6 9 12 21 10 33 16 26 33 38 34 41 49 48 40 30 27 27 27 27 30 29 26 26 27 25 25 30 31 47 59 66 67 61 59 59 58 58 55 53 46 48 49 48 47 44
5 8 2 7 20 28 15 24 13 12 8 16 44 70 68 62 58 53 44 38 37 38 38 34 36 40 39 33 34 34 29 27 31 48 67 74 74 65 63 60 63 60 58 53 51 52 52 49 48
5 13 10 13 18 28 13 26 13 29 35 44 47 49 49 48 45 40 39 35 27 28 40 41 47 44 43 47 33 35 37 35 31 37 52 67 90 80 73 70 69 70 67 63 60 61 53 48 48
4 6 22 37 51 37 37 14 20 29 35 18 14 19 20 12 22 21 19 23 29 28 23 23 35 45 40 39 40 34 36 39 33 26 44 61 69 86 80 75 73 73 72 69 65 60 60 57 50
8 24 33 30 30 19 11 12 13 30 37 13 23 28 23 24 22 17 14 12 15 20 20 22 18 29 29 29 37 33 34 40 42 32 33 47 61 82 87 77 77 72 68 77 74 66 58 50 52
22 10 13 9 6 16 28 10 4 19 26 31 37 34 33 31 28 29 26 19 16 14 17 24 20 23 26 28 32 35 34 39 42 39 32 46 43 88 93 91 82 75 64 65 74 67 54 48 50
9 4 17 12 34 8 26 25 10 34 35 31 40 44 43 37 37 36 32 24 18 15 16 19 23 20 28 31 32 37 35 37 37 36 34 38 47 50 79 93 87 79 74 66 69 70 59 53 50
8 18 33 23 21 15 5 19 17 32 27 34 44 52 51 48 38 37 37 32 22 16 15 18 22 18 19 25 27 32 34 37 37 40 38 32 41 53 57 72 82 84 86 72 74 73 67 63 57
26 24 15 27 12 11 24 7 9 22 34 31 37 45 51 56 51 47 41 33 23 15 11 12 20 25 24 23 27 36 38 37 37 41 45 37 39 49 53 62 73 73 86 71 76 67 64 61 56
12 19 21 22 19 19 9 5 12 14 30 35 43 47 50 58 50 46 43 34 22 14 11 8 20 26 23 26 33 39 40 37 37 40 45 41 38 42 51 60 72 78 73 77 68 65 62 62 60
15 22 12 16 5 13 6 8 9 14 19 36 41 47 49 67 57 49 44 45 33 13 11 11 14 20 24 28 34 38 37 36 33 35 41 41 38 47 40 54 59 53 64 71 72 58 65 62 53
16 7 9 16 16 3 6 10 2 11 12 44 42 44 50 55 62 58 50 44 39 28 10 11 10 16 23 30 36 38 38 38 30 24 37 41 45 49 49 54 45 34 37 62 75 69 61 57 59
11 9 22 23 3 3 6 8 4 16 18 34 49 54 58 66 60 55 52 44 40 29 22 11 10 14 22 28 33 34 36 36 21 30 30 36 36 40 42 43 32 25 34 50 59 56 56 60 58
17 34 22 9 5 6 6 1 5 13 25 39 44 55 56 61 59 57 52 43 38 29 24 19 13 14 20 26 33 37 34 30 32 30 30 49 53 51 53 47 46 32 25 43 45 55 57 57 61
24 10 2 3 4 5 6 6 6 6 14 29 39 51 56 60 58 54 47 42 34 31 22 20 17 14 17 24 19 20 19 27 31 29 36 44 56 58 61 52 53 40 48 57 59 59 60 65 60
17 11 7 8 7 9 7 3 9 5 6 14 31 50 56 61 60 59 58 49 40 36 30 23 19 18 15 14 11 10 17 24 29 33 42 50 57 53 57 60 55 44 57 58 55 52 63 53 59
10 7 4 6 7 11 8 6 8 12 11 28 37 37 46 56 58 55 50 45 41 37 34 24 15 13 11 8 8 10 15 21 26 31 50 55 56 57 64 59 53 65 60 58 49 40 35 30 23
10 9 2 4 6 6 6 3 5 8 17 27 36 41 49 59 60 52 44 40 36 35 34 28 20 14 10 5 1 9 13 17 31 46 44 48 49 48 45 52 61 62 55 48 42 34 28 19 23
6 8 2 1 7 9 10 8 7 20 33 27 28 40 51 57 54 48 42 37 32 31 28 24 21 19 16 9 8 16 20 24 37 44 46 50 53 53 53 54 56 59 56 52 45 46 40 29 35
7 6 3 4 3 3 9 9 7 7 17 20 24 35 42 51 45 41 37 33 28 25 25 23 23 20 17 10 14 20 29 36 46 54 59 69 67 68 72 70 67 63 59 55 50 47 40 28 31
5 7 4 5 6 4 2 11 6 8 12 22 30 35 35 37 35 33 32 31 28 27 26 24 23 26 32 31 31 44 54 57 61 76 85 85 90 84 83 78 71 67 59 54 49 48 45 42 40
Wind_Direction_500mb
312 207 167 156 79 55 260 254 297 294 216 158 307 266 226 227 217 226 72 197 206 221 206 203 180 191 190 191 189 192 193 192 190 188 187 186 187 188 189 196 197 197 203 194 193 197 197 190 177
356 166 157 143 124 178 248 237 244 242 285 318 323 319 169 207 134 142 179 183 194 207 191 185 168 186 198 199 197 195 197 197 195 192 188 189 189 192 197 201 207 207 205 200 197 198 192 184 174
339 175 160 146 182 217 222 231 248 315 312 303 306 6 3 3 71 65 61 194 189 193 168 150 163 174 198 208 204 203 199 195 197 196 194 194 196 199 206 210 210 209 205 208 199 195 189 179 166
281 188 114 144 235 247 211 236 81 316 337 4 349 352 39 23 26 86 59 124 210 175 167 165 176 200 209 216 214 210 206 191 197 200 198 199 203 207 212 212 208 207 210 211 194 190 185 174 168
204 163 140 258 254 251 242 278 330 287 307 306 329 102 102 88 91 69 37 69 184 142 168 183 191 203 204 210 223 222 213 209 200 205 208 208 211 213 213 210 207 207 207 201 192 185 177 173 182
205 117 117 236 245 288 292 292 313 288 295 292 285 137 150 78 70 47 359 331 61 149 165 188 197 201 209 216 223 227 227 222 214 209 210 214 215 213 212 208 203 202 197 193 190 182 175 183 183
135 105 232 259 265 292 277 334 353 303 275 271 260 159 179 185 27 42 329 325 312 343 138 193 202 214 217 219 229 232 232 228 228 220 215 216 217 216 211 205 201 196 195 193 189 183 181 188 186
165 111 289 259 250 277 25 353 335 3 305 338 290 223 158 41 60 106 297 309 304 287 296 244 217 226 235 237 242 242 239 233 231 230 226 223 218 217 212 206 199 196 200 198 191 185 189 189 189
146 40 276 273 260 301 359 11 326 322 284 315 303 308 320 318 320 308 278 273 287 284 288 280 265 250 253 254 244 254 257 239 239 229 228 226 221 215 213 207 201 199 204 201 194 189 195 198 196
114 138 234 248 340 327 324 324 316 322 315 305 309 287 281 300 306 308 306 303 290 282 279 286 290 274 264 266 270 263 263 268 249 236 226 227 223 218 212 209 205 203 206 203 198 197 201 206 205
18 215 243 290 322 336 301 307 285 282 290 286 296 301 301 298 296 299 301 299 299 294 287 290 289 291 289 268 258 271 276 280 280 250 234 224 225 219 214 210 208 203 204 206 204 204 205 204 209
337 256 271 279 294 314 281 289 260 246 272 287 295 299 297 298 300 296 299 298 295 295 294 286 284 290 285 285 269 259 265 275 277 269 259 239 222 216 214 210 207 207 206 209 210 212 212 212 213
214 291 310 305 305 301 299 277 274 263 314 334 5 18 27 330 306 301 292 279 271 275 260 278 288 283 286 282 278 258 259 262 271 277 260 264 228 215 214 210 211 211 210 210 214 214 218 220 216
272 289 294 297 300 313 309 294 339 340 348 347 353 358 2 1 356 333 328 318 292 286 275 263 280 291 281 275 281 273 260 258 259 264 256 244 229 235 218 213 214 212 211 210 212 217 218 218 211
286 316 316 296 300 340 341 307 95 354 350 354 350 337 334 346 346 346 338 322 310 287 268 262 262 284 292 283 289 288 276 264 252 249 254 237 237 243 232 220 216 213 211 214 213 213 218 211 211
342 31 340 325 308 308 1 291 45 359 2 4 353 347 340 341 346 341 336 324 305 286 273 251 252 257 284 284 285 285 275 270 254 238 250 241 233 240 217 226 216 217 212 212 217 207 208 211 214
29 319 318 320 333 4 12 293 22 13 10 0 359 353 351 346 349 346 339 332 314 300 270 250 246 255 276 289 274 277 270 268 256 239 244 238 228 228 246 253 224 221 215 213 212 206 209 209 215
308 318 291 300 297 333 307 318 349 13 15 1 357 355 352 355 1 356 343 330 316 292 267 245 236 243 247 262 282 289 276 265 260 247 244 247 226 229 230 229 229 229 229 221 207 207 214 217 219
260 290 284 294 307 312 306 327 346 359 14 1 1 358 353 350 0 9 1 347 325 277 261 233 216 228 249 268 276 279 273 265 256 249 248 245 227 221 210 219 231 236 238 243 205 200 214 218 216
299 300 284 296 305 332 32 295 309 9 18 8 3 354 353 355 5 11 9 8 4 333 260 250 223 224 247 268 272 267 267 267 260 246 261 245 233 229 224 225 221 231 232 219 214 200 211 220 224
318 217 289 286 327 179 144 274 278 346 347 3 1 354 356 355 347 2 6 13 14 25 31 298 255 234 255 266 266 260 264 275 264 248 250 249 221 220 214 201 219 222 230 221 225 210 207 219 230
316 196 316 291 92 250 153 283 140 348 345 0 355 353 350 350 357 5 2 11 15 8 5 335 274 255 262 266 264 264 265 279 261 262 260 234 217 215 215 206 190 192 244 239 193 202 211 216 224
251 312 290 235 155 60 194 108 236 1 343 345 347 348 347 351 355 354 359 1 8 11 5 351 318 285 272 273 270 262 268 272 251 259 248 210 212 194 193 191 160 159 208 197 204 210 211 216 224
326 335 218 84 75 12 233 134 288 350 333 328 338 341 344 347 350 358 1 4 11 13 21 24 357 329 307 294 287 269 264 257 248 255 246 188 179 185 195 175 174 176 192 188 198 216 223 216 224
16 351 353 357 360 231 262 127 249 171 356 324 326 331 341 347 352 359 2 8 9 8 17 23 15 352 331 316 297 257 236 241 245 256 214 174 191 191 189 179 189 195 200 197 203 205 201 208 215
357 90 51 296 316 296 316 251 286 173 96 355 339 341 346 353 357 5 5 6 5 6 18 26 31 21 349 326 258 227 221 235 239 217 181 172 166 161 166 181 187 186 187 195 191 182 170 154 153
333 39 255 255 215 295 268 236 135 237 353 354 348 348 349 353 357 3 6 8 10 16 18 19 28 27 3 331 252 163 182 197 182 186 162 160 164 162 177 176 166 170 175 165 162 159 143 163 144
93 331 113 223 341 300 305 292 257 337 334 340 345 349 346 355 359 5 8 10 16 24 26 30 41 46 45 36 137 149 148 152 151 148 144 143 144 142 148 141 133 129 135 132 137 126 117 122 110
350 360 356 277 222 247 308 289 168 260 299 311 328 345 349 353 357 5 11 19 25 34 38 44 52 60 71 85 122 134 129 143 145 141 136 131 128 128 126 122 120 117 113 113 114 109 110 113 104
121 219 197 116 308 281 260 278 154 232 294 335 339 350 355 356 1 11 23 33 36 43 54 63 75 90 97 106 120 115 115 121 124 123 121 120 120 120 117 116 115 112 109 106 104 106 101 99 99
Wind_Speed_850mb
6 6 17 20 5 6 7 15 7 8 6 6 14 13 14 12 7 7 8 7 10 11 13 18 23 29 34 35 44 49 51 51 52 54 52 50 46 43 42 37 36 35 33 34 35 33 30 25 26
4 8 19 7 8 5 11 10 13 26 13 43 35 24 6 5 4 5 8 5 7 10 12 15 20 22 26 32 36 45 49 51 53 53 53 52 49 46 41 40 37 35 34 34 34 35 33 30 28
7 12 9 8 8 16 10 9 18 21 38 41 21 7 5 6 10 6 6 3 5 12 16 20 13 16 21 30 34 36 46 50 50 53 54 52 49 46 43 42 41 39 35 32 33 36 38 34 37
3 7 4 4 16 12 11 8 2 15 18 20 18 6 5 6 5 8 12 1 6 17 24 32 28 23 23 28 33 37 36 45 50 52 54 53 50 47 45 42 41 39 33 31 34 38 40 42 43
4 5 1 6 14 10 8 19 8 6 15 32 17 1 7 21 17 11 6 4 7 14 20 25 27 29 29 31 37 40 41 41 46 51 54 53 50 47 45 44 43 38 32 33 37 40 44 45 40
3 5 3 14 14 7 9 14 16 14 27 29 8 15 11 22 11 6 5 4 6 14 12 19 28 30 33 33 36 42 46 47 46 50 52 53 50 47 46 47 44 37 30 35 40 44 47 41 39
9 7 10 7 9 11 6 22 7 13 12 13 10 11 22 8 14 2 5 6 8 6 7 14 11 17 26 33 33 40 47 51 54 54 50 52 51 48 49 50 46 41 36 32 41 46 47 40 40
4 6 6 7 4 11 7 21 15 21 9 24 6 7 7 9 9 2 4 6 7 9 8 5 9 13 20 19 24 34 38 52 57 59 57 52 52 50 50 52 50 44 41 34 45 49 46 42 41
6 5 5 9 5 8 13 12 20 26 16 36 18 9 8 26 23 16 15 14 15 18 17 16 15 16 20 19 22 30 36 45 57 61 59 58 54 54 54 56 54 49 48 39 45 50 46 42 41
6 6 10 6 9 12 21 10 33 16 26 33 38 34 41 49 48 40 30 27 27 27 27 30 29 26 26 27 25 25 30 31 47 59 66 67 61 59 59 58 58 55 53 46 48 49 48 47 44
5 8 2 7 20 28 15 24 13 12 8 16 44 70 68 62 58 53 44 38 37 38 38 34 36 40 39 33 34 34 29 27 31 48 67 74 74 65 63 60 63 60 58 53 51 52 52 49 48
5 13 10 13 18 28 13 26 13 29 35 44 47 49 49 48 45 40 39 35 27 28 40 41 47 44 43 47 33 35 37 35 31 37 52 67 90 80 73 70 69 70 67 63 60 61 53 48 48
4 6 22 37 51 37 37 14 20 29 35 18 14 19 20 12 22 21 19 23 29 28 23 23 35 45 40 39 40 34 36 39 33 26 44 61 69 86 80 75 73 73 72 69 65 60 60 57 50
8 24 33 30 30 19 11 12 13 30 37 13 23 28 23 24 22 17 14 12 15 20 20 22 18 29 29 29 37 33 34 40 42 32 33 47 61 82 87 77 77 72 68 77 74 66 58 50 52
22 10 13 9 6 16 28 10 4 19 26 31 37 34 33 31 28 29 26 19 16 14 17 24 20 23 26 28 32 35 34 39 42 39 32 46 43 88 93 91 82 75 64 65 74 67 54 48 50
9 4 17 12 34 8 26 25 10 34 35 31 40 44 43 37 37 36 32 24 18 15 16 19 23 20 28 31 32 37 35 37 37 36 34 38 47 50 79 93 87 79 74 66 69 70 59 53 50
8 18 33 23 21 15 5 19 17 32 27 34 44 52 51 48 38 37 37 32 22 16 15 18 22 18 19 25 27 32 34 37 37 40 38 32 41 53 57 72 82 84 86 72 74 73 67 63 57
26 24 15 27 12 11 24 7 9 22 34 31 37 45 51 56 51 47 41 33 23 15 11 12 20 25 24 23 27 36 38 37 37 41 45 37 39 49 53 62 73 73 86 71 76 67 64 61 56
12 19 21 22 19 19 9 5 12 14 30 35 43 47 50 58 50 46 43 34 22 14 11 8 20 26 23 26 33 39 40 37 37 40 45 41 38 42 51 60 72 78 73 77 68 65 62 62 60
15 22 12 16 5 13 6 8 9 14 19 36 41 47 49 67 57 49 44 45 33 13 11 11 14 20 24 28 34 38 37 36 33 35 41 41 38 47 40 54 59 53 64 71 72 58 65 62 53
16 7 9 16 16 3 6 10 2 11 12 44 42 44 50 55 62 58 50 44 39 28 10 11 10 16 23 30 36 38 38 38 30 24 37 41 45 49 49 54 45 34 37 62 75 69 61 57 59
11 9 22 23 3 3 6 8 4 16 18 34 49 54 58 66 60 55 52 44 40 29 22 11 10 14 22 28 33 34 36 36 21 30 30 36 36 40 42 43 32 25 34 50 59 56 56 60 58
17 34 22 9 5 6 6 1 5 13 25 39 44 55 56 61 59 57 52 43 38 29 24 19 13 14 20 26 33 37 34 30 32 30 30 49 53 51 53 47 46 32 25 43 45 55 57 57 61
24 10 2 3 4 5 6 6 6 6 14 29 39 51 56 60 58 54 47 42 34 31 22 20 17 14 17 24 19 20 19 27 31 29 36 44 56 58 61 52 53 40 48 57 59 59 60 65 60
17 11 7 8 7 9 7 3 9 5 6 14 31 50 56 61 60 59 58 49 40 36 30 23 19 18 15 14 11 10 17 24 29 33 42 50 57 53 57 60 55 44 57 58 55 52 63 53 59
10 7 4 6 7 11 8 6 8 12 11 28 37 37 46 56 58 55 50 45 41 37 34 24 15 13 11 8 8 10 15 21 26 31 50 55 56 57 64 59 53 65 60 58 49 40 35 30 23
10 9 2 4 6 6 6 3 5 8 17 27 36 41 49 59 60 52 44 40 36 35 34 28 20 14 10 5 1 9 13 17 31 46 44 48 49 48 45 52 61 62 55 48 42 34 28 19 23
6 8 2 1 7 9 10 8 7 20 33 27 28 40 51 57 54 48 42 37 32 31 28 24 21 19 16 9 8 16 20 24 37 44 46 50 53 53 53 54 56 59 56 52 45 46 40 29 35
7 6 3 4 3 3 9 9 7 7 17 20 24 35 42 51 45 41 37 33 28 25 25 23 23 20 17 10 14 20 29 36 46 54 59 69 67 68 72 70 67 63 59 55 50 47 40 28 31
5 7 4 5 6 4 2 11 6 8 12 22 30 35 35 37 35 33 32 31 28 27 26 24 23 26 32 31 31 44 54 57 61 76 85 85 90 84 83 78 71 67 59 54 49 48 45 42 40
Wind_Direction_850mb
312 207 167 156 79 55 260 254 297 294 216 158 307 266 226 227 217 226 72 197 206 221 206 203 180 191 190 191 189 192 193 192 190 188 187 186 187 188 189 196 197 197 203 194 193 197 197 190 177
356 166 157 143 124 178 248 237 244 242 285 318 323 319 169 207 134 142 179 183 194 207 191 185 168 186 198 199 197 195 197 197 195 192 188 189 189 192 197 201 207 207 205 200 197 198 192 184 174
339 175 160 146 182 217 222 231 248 315 312 303 306 6 3 3 71 65 61 194 189 193 168 150 163 174 198 208 204 203 199 195 197 196 194 194 196 199 206 210 210 209 205 208 199 195 189 179 166
281 188 114 144 235 247 211 236 81 316 337 4 349 352 39 23 26 86 59 124 210 175 167 165 176 200 209 216 214 210 206 191 197 200 198 199 203 207 212 212 208 207 210 211 194 190 185 174 168
204 163 140 258 254 251 242 278 330 287 307 306 329 102 102 88 91 69 37 69 184 142 168 183 191 203 204 210 223 222 213 209 200 205 208 208 211 213 213 210 207 207 207 201 192 185 177 173 182
205 117 117 236 245 288 292 292 313 288 295 292 285 137 150 78 70 47 359 331 61 149 165 188 197 201 209 216 223 227 227 222 214 209 210 214 215 213 212 208 203 202 197 193 190 182 175 183 183
135 105 232 259 265 292 277 334 353 303 275 271 260 159 179 185 27 42 329 325 312 343 138 193 202 214 217 219 229 232 232 228 228 220 215 216 217 216 211 205 201 196 195 193 189 183 181 188 186
165 111 289 259 250 277 25 353 335 3 305 338 290 223 158 41 60 106 297 309 304 287 296 244 217 226 235 237 242 242 239 233 231 230 226 223 218 217 212 206 199 196 200 198 191 185 189 189 189
146 40 276 273 260 301 359 11 326 322 284 315 303 308 320 318 320 308 278 273 287 284 288 280 265 250 253 254 244 254 257 239 239 229 228 226 221 215 213 207 201 199 204 201 194 189 195 198 196
114 138 234 248 340 327 324 324 316 322 315 305 309 287 281 300 306 308 306 303 290 282 279 286 290 274 264 266 270 263 263 268 249 236 226 227 223 218 212 209 205 203 206 203 198 197 201 206 205
18 215 243 290 322 336 301 307 285 282 290 286 296 301 301 298 296 299 301 299 299 294 287 290 289 291 289 268 258 271 276 280 280 250 234 224 225 219 214 210 208 203 204 206 204 204 205 204 209
337 256 271 279 294 314 281 289 260 246 272 287 295 299 297 298 300 296 299 298 295 295 294 286 284 290 285 285 269 259 265 275 277 269 259 239 222 216 214 210 207 207 206 209 210 212 212 212 213
214 291 310 305 305 301 299 277 274 263 314 334 5 18 27 330 306 301 292 279 271 275 260 278 288 283 286 282 278 258 259 262 271 277 260 264 228 215 214 210 211 211 210 210 214 214 218 220 216
272 289 294 297 300 313 309 294 339 340 348 347 353 358 2 1 356 333 328 318 292 286 275 263 280 291 281 275 281 273 260 258 259 264 256 244 229 235 218 213 214 212 211 210 212 217 218 218 211
286 316 316 296 300 340 341 307 95 354 350 354 350 337 334 346 346 346 338 322 310 287 268 262 262 284 292 283 289 288 276 264 252 249 254 237 237 243 232 220 216 213 211 214 213 213 218 211 211
342 31 340 325 308 308 1 291 45 359 2 4 353 347 340 341 346 341 336 324 305 286 273 251 252 257 284 284 285 285 275 270 254 238 250 241 233 240 217 226 216 217 212 212 217 207 208 211 214
29 319 318 320 333 4 12 293 22 13 10 0 359 353 351 346 349 346 339 332 314 300 270 250 246 255 276 289 274 277 270 268 256 239 244 238 228 228 246 253 224 221 215 213 212 206 209 209 215
308 318 291 300 297 333 307 318 349 13 15 1 357 355 352 355 1 356 343 330 316 292 267 245 236 243 247 262 282 289 276 265 260 247 244 247 226 229 230 229 229 229 229 221 207 207 214 217 219
260 290 284 294 307 312 306 327 346 359 14 1 1 358 353 350 0 9 1 347 325 277 261 233 216 228 249 268 276 279 273 265 256 249 248 245 227 221 210 219 231 236 238 243 205 200 214 218 216
299 300 284 296 305 332 32 295 309 9 18 8 3 354 353 355 5 11 9 8 4 333 260 250 223 224 247 268 272 267 267 267 260 246 261 245 233 229 224 225 221 231 232 219 214 200 211 220 224
318 217 289 286 327 179 144 274 278 346 347 3 1 354 356 355 347 2 6 13 14 25 31 298 255 234 255 266 266 260 264 275 264 248 250 249 221 220 214 201 219 222 230 221 225 210 207 219 230
316 196 316 291 92 250 153 283 140 348 345 0 355 353 350 350 357 5 2 11 15 8 5 335 274 255 262 266 264 264 265 279 261 262 260 234 217 215 215 206 190 192 244 239 193 202 211 216 224
251 312 290 235 155 60 194 108 236 1 343 345 347 348 347 351 355 354 359 1 8 11 5 351 318 285 272 273 270 262 268 272 251 259 248 210 212 194 193 191 160 159 208 197 204 210 211 216 224
326 335 218 84 75 12 233 134 288 350 333 328 338 341 344 347 350 358 1 4 11 13 21 24 357 329 307 294 287 269 264 257 248 255 246 188 179 185 195 175 174 176 192 188 198 216 223 216 224
16 351 353 357 360 231 262 127 249 171 356 324 326 331 341 347 352 359 2 8 9 8 17 23 15 352 331 316 297 257 236 241 245 256 214 174 191 191 189 179 189 195 200 197 203 205 201 208 215
357 90 51 296 316 296 316 251 286 173 96 355 339 341 346 353 357 5 5 6 5 6 18 26 31 21 349 326 258 227 221 235 239 217 181 172 166 161 166 181 187 186 187 195 191 182 170 154 153
333 39 255 255 215 295 268 236 135 237 353 354 348 348 349 353 357 3 6 8 10 16 18 19 28 27 3 331 252 163 182 197 182 186 162 160 164 162 177 176 166 170 175 165 162 159 143 163 144
93 331 113 223 341 300 305 292 257 337 334 340 345 349 346 355 359 5 8 10 16 24 26 30 41 46 45 36 137 149 148 152 151 148 144 143 144 142 148 141 133 129 135 132 137 126 117 122 110
350 360 356 277 222 247 308 289 168 260 299 311 328 345 349 353 357 5 11 19 25 34 38 44 52 60 71 85 122 134 129 143 145 141 136 131 128 128 126 122 120 117 113 113 114 109 110 113 104
121 219 197 116 308 281 260 278 154 232 294 335 339 350 355 356 1 11 23 33 36 43 54 63 75 90 97 106 120 115 115 121 124 123 121 120 120 120 117 116 115 112 109 106 104 106 101 99 99